{"data":{"norad_id":62280,"epoch":"2026-05-25T05:34:33.900384Z","epoch_age_seconds":65405,"freshness":"FRESH","line1":"1 62280U 24237P   26145.23233681  .00017738  00000+0  65226-3 0  9991","line2":"2 62280  42.9993 133.2290 0001061 264.4808  95.5922 15.27595822 83027","mean_motion":15.27595822,"eccentricity":0.0001061,"inclination_deg":42.9993,"raan_deg":133.229,"arg_perigee_deg":264.4808,"mean_anomaly_deg":95.5922,"bstar":0.00065226,"rev_number":8302,"period_min":94.265772350351,"perigee_km":482.27375287048,"apogee_km":483.7296865068,"semimajor_km":6861.1387196886,"source":"CELESTRAK","updated_at":"2026-05-25T13:38:19.644618Z"}}